1536361200.28,32834,17.81,74040.8,0.67,-2.67,-3.55,0,*42
1536361201.5,32835,17.81,74046.8,0.69,-2.67,-3.51,0,*49
1536361202.73,32836,17.81,74044.3,0.69,-2.63,-3.51,0,*4E
1536361203.95,32837,17.81,74046.8,0.69,-2.63,-3.51,0,*4F
1536361205.17,32838,17.81,74040.5,0.69,-2.67,-3.51,0,*44
1536361206.42,32839,17.81,74044.0,0.67,-2.71,-3.55,0,*48
1536361207.66,32840,17.81,74042.5,0.67,-2.67,-3.55,0,*41
1536361208.89,32841,17.81,74044.5,0.69,-2.71,-3.51,0,*4D
1536361210.13,32842,17.81,74044.3,0.67,-2.59,-3.55,0,*4E
1536361211.38,32843,17.81,74040.8,0.67,-2.67,-3.59,0,*4E
1536361212.62,32844,17.81,74046.3,0.67,-2.59,-3.55,0,*48
1536361213.87,32845,17.81,74042.5,0.67,-2.59,-3.55,0,*49
1536361215.09,32846,17.81,74042.5,0.69,-2.55,-3.51,0,*4C
1536361216.33,32847,17.81,74040.3,0.67,-2.59,-3.55,0,*4B
1536361217.55,32848,17.81,74042.5,0.69,-2.55,-3.51,0,*42
1536361218.8,32849,17.81,74042.5,0.67,-2.55,-3.55,0,*49
1536361220.02,32850,17.81,74044.0,0.69,-2.55,-3.51,0,*4B
1536361221.25,32851,17.81,74042.0,0.69,-2.51,-3.51,0,*4E
1536361222.49,32852,17.81,74042.5,0.67,-2.59,-3.55,0,*4F
1536361223.73,32853,17.81,74038.8,0.67,-2.55,-3.55,0,*42
1536361224.96,32854,17.81,74040.5,0.69,-2.55,-3.51,0,*4F
1536361226.17,32855,17.81,74042.0,0.69,-2.67,-3.55,0,*4B
1536361227.4,32856,17.81,74040.8,0.69,-2.63,-3.63,0,*49
1536361228.62,32857,17.81,74038.0,0.69,-2.55,-3.51,0,*4C
1536361229.87,32858,17.81,74042.3,0.67,-2.67,-3.59,0,*44
1536361231.12,32859,17.81,74044.8,0.67,-2.67,-3.59,0,*45
1536361232.37,32860,17.81,74040.3,0.67,-2.67,-3.55,0,*43
1536361233.59,32861,17.81,74042.0,0.73,-2.51,-3.51,0,*46
1536361234.81,32862,17.81,74038.8,0.69,-2.63,-3.63,0,*4E
1536361236.03,32863,17.81,74042.8,0.69,-2.67,-3.67,0,*4F
1536361237.27,32864,17.81,74044.8,0.67,-2.71,-3.71,0,*46
1536361238.49,32865,17.81,74042.5,0.69,-2.67,-3.67,0,*49
1536361239.71,32866,17.81,74040.3,0.69,-2.71,-3.67,0,*4D
1536361240.89,32867,17.81,74042.8,0.69,-2.79,-3.75,0,*47
1536361242.1,32868,17.81,74046.0,0.69,-2.75,-3.75,0,*44
1536361243.31,32869,17.81,74042.8,0.69,-2.67,-3.67,0,*45
1536361244.52,32870,17.81,74038.8,0.67,-2.79,-3.79,0,*43
1536361245.7,32871,17.81,74040.3,0.69,-2.79,-3.75,0,*40
1536361246.95,32872,17.81,74038.8,0.67,-2.71,-3.71,0,*41
1536361248.15,32873,17.81,74040.5,0.69,-2.67,-3.75,0,*4D
1536361249.35,32874,17.81,74036.8,0.67,-2.79,-3.83,0,*42
1536361250.55,32875,17.81,74040.8,0.69,-2.75,-3.79,0,*44
1536361251.76,32876,17.81,74040.5,0.69,-2.75,-3.79,0,*47
1536361252.96,32877,17.81,74044.8,0.69,-2.67,-3.83,0,*40
1536361254.17,32878,17.81,74044.3,0.69,-2.67,-3.63,0,*41
1536361255.4,32879,17.81,74040.0,0.67,-2.71,-3.79,0,*42
1536361256.63,32880,17.81,74040.0,0.67,-2.71,-3.79,0,*44
1536361257.86,32881,17.81,74036.8,0.67,-2.71,-3.83,0,*40
1536361259.09,32882,17.81,74036.3,0.67,-2.71,-3.79,0,*46
1536361260.32,32883,17.81,74036.5,0.67,-2.71,-3.79,0,*47
1536361261.56,32884,17.81,74036.8,0.67,-2.71,-3.79,0,*40
1536361262.78,32885,17.81,74034.0,0.67,-2.79,-3.67,0,*46
1536361263.98,32886,17.81,74038.0,0.69,-2.67,-3.75,0,*47
1536361265.18,32887,17.81,74036.5,0.67,-2.79,-3.79,0,*4B
1536361266.39,32888,17.81,74038.0,0.69,-2.75,-3.79,0,*46
1536361267.59,32889,17.81,74038.3,0.67,-2.79,-3.79,0,*45
1536361268.8,32890,17.81,74038.0,0.69,-2.75,-3.75,0,*43
1536361270.03,32891,17.81,74040.8,0.67,-2.71,-3.79,0,*44
1536361271.26,32892,17.81,74042.8,0.67,-2.71,-3.79,0,*47
1536361272.5,32893,17.81,74040.3,0.67,-2.67,-3.71,0,*49
1536361273.71,32894,17.81,74036.0,0.69,-2.63,-3.75,0,*40
1536361274.91,32895,17.81,74038.0,0.69,-2.67,-3.75,0,*45
1536361276.12,32896,17.81,74046.5,0.67,-2.79,-3.79,0,*4B
1536361277.36,32897,17.81,74044.3,0.67,-2.67,-3.71,0,*4D
1536361278.61,32898,17.81,74044.8,0.67,-2.71,-3.71,0,*45
1536361279.84,32899,17.81,74040.8,0.67,-2.71,-3.79,0,*4C
1536361281.04,32900,17.81,74046.3,0.67,-2.79,-3.79,0,*45
1536361282.25,32901,17.81,74044.0,0.69,-2.75,-3.75,0,*4A
1536361283.45,32902,17.81,74040.3,0.67,-2.79,-3.79,0,*47
1536361284.66,32903,17.81,74042.8,0.67,-2.79,-3.83,0,*43
1536361285.86,32904,17.81,74042.3,0.67,-2.79,-3.83,0,*44
1536361287.06,32905,17.81,74042.0,0.69,-2.75,-3.79,0,*42
1536361288.26,32906,17.81,74042.0,0.67,-2.79,-3.83,0,*46
1536361289.47,32907,17.81,74040.5,0.69,-2.75,-3.79,0,*40
1536361290.67,32908,17.81,74042.0,0.67,-2.83,-3.83,0,*4D
1536361291.87,32909,17.81,74044.3,0.67,-2.79,-3.83,0,*49
1536361293.07,32910,17.81,74040.8,0.67,-2.79,-3.79,0,*44
1536361294.25,32911,17.81,74040.5,0.69,-2.79,-3.83,0,*4E
1536361295.46,32912,17.75,74042.3,0.67,-2.79,-3.79,0,*46
1536361296.63,32913,17.81,74042.0,0.69,-2.79,-3.79,0,*49
1536361297.84,32914,17.81,74042.8,0.67,-2.79,-3.83,0,*45
1536361299.04,32915,17.81,74042.3,0.67,-2.79,-3.79,0,*41
1536361300.22,32916,17.81,74040.0,0.69,-2.79,-3.75,0,*40
1536361301.42,32917,17.81,74042.5,0.69,-2.75,-3.79,0,*41
1536361302.63,32918,17.81,74042.3,0.69,-2.75,-3.75,0,*42
1536361303.85,32919,17.81,74042.3,0.67,-2.79,-3.71,0,*45
1536361305.05,32920,17.81,74042.3,0.69,-2.71,-3.79,0,*41
1536361306.25,32921,17.81,74040.8,0.67,-2.91,-3.83,0,*45
1536361307.43,32922,17.81,74042.0,0.69,-2.87,-3.79,0,*4A
1536361308.61,32923,17.81,74044.0,0.69,-2.87,-3.79,0,*4B
1536361309.79,32924,17.81,74042.8,0.69,-2.79,-3.79,0,*4D
1536361310.99,32925,17.81,74044.5,0.67,-2.79,-3.83,0,*47
1536361312.19,32926,17.81,74046.0,0.67,-2.83,-3.83,0,*41
1536361313.37,32927,17.81,74042.8,0.69,-2.79,-3.79,0,*4E
1536361314.55,32928,17.81,74040.0,0.69,-2.87,-3.79,0,*40
1536361315.74,32929,17.81,74042.8,0.67,-2.91,-3.83,0,*4D
1536361316.96,32930,17.81,74040.5,0.67,-2.95,-3.91,0,*42
1536361318.16,32931,17.81,74042.8,0.67,-2.91,-3.91,0,*47
1536361319.33,32932,17.81,74040.5,0.69,-2.91,-3.91,0,*4A
1536361320.51,32933,17.81,74046.5,0.69,-2.91,-3.95,0,*4F
1536361321.68,32934,17.81,74040.0,0.69,-2.87,-3.87,0,*4C
1536361322.88,32935,17.81,74042.8,0.67,-2.91,-3.83,0,*40
1536361324.08,32936,17.81,74040.5,0.67,-2.91,-3.79,0,*46
1536361325.29,32937,17.81,74042.3,0.67,-2.95,-3.91,0,*45
1536361326.5,32938,17.81,74046.0,0.67,-2.95,-3.83,0,*49
1536361327.68,32939,17.81,74042.5,0.69,-2.87,-3.79,0,*40
1536361328.86,32940,17.81,74046.3,0.69,-2.79,-3.79,0,*4F
1536361330.06,32941,17.81,74046.8,0.67,-2.79,-3.79,0,*40
1536361331.26,32942,17.81,74042.8,0.67,-2.83,-3.83,0,*43
1536361332.44,32943,17.81,74042.0,0.69,-2.91,-3.79,0,*4A
1536361333.61,32944,17.81,74044.8,0.69,-2.91,-3.79,0,*4D
1536361334.81,32945,17.81,74040.8,0.67,-2.91,-3.79,0,*42
1536361336.01,32946,17.81,74040.3,0.67,-2.91,-3.83,0,*44
1536361337.19,32947,17.81,74042.8,0.69,-2.87,-3.79,0,*49
1536361338.37,32948,17.81,74046.0,0.69,-2.91,-3.79,0,*41
1536361339.56,32949,17.81,74042.3,0.67,-2.91,-3.83,0,*4B
1536361340.74,32950,17.81,74046.8,0.69,-2.91,-3.83,0,*4D
1536361341.91,32951,17.81,74040.8,0.69,-2.91,-3.87,0,*48
1536361343.12,32952,17.81,74042.0,0.67,-2.95,-3.91,0,*46
1536361344.33,32953,17.81,74042.5,0.67,-2.95,-3.91,0,*47
1536361345.51,32954,17.81,74040.5,0.69,-2.87,-3.87,0,*4A
1536361346.72,32955,17.81,74036.3,0.67,-2.95,-3.91,0,*41
1536361347.93,32956,17.81,74036.5,0.67,-2.95,-3.83,0,*41
1536361349.1,32957,17.81,74040.0,0.69,-2.91,-3.87,0,*4E
1536361350.31,32958,17.81,74036.0,0.67,-3.03,-3.91,0,*42
1536361351.51,32959,17.81,74042.0,0.67,-2.91,-3.83,0,*4A
1536361352.68,32960,17.81,74042.0,0.69,-3.03,-3.95,0,*43
1536361353.89,32961,17.81,74040.5,0.67,-3.03,-3.91,0,*48
1536361355.07,32962,17.81,74036.3,0.69,-2.99,-3.91,0,*47
1536361356.27,32963,17.81,74036.0,0.67,-3.03,-3.91,0,*4A
1536361357.45,32964,17.81,74036.8,0.69,-3.03,-3.91,0,*43
1536361358.66,32965,17.81,74038.5,0.67,-3.03,-3.95,0,*48
1536361359.83,32966,17.81,74036.8,0.65,-3.03,-3.91,0,*4D
1536361361.04,32967,17.81,74040.3,0.67,-3.03,-3.91,0,*4E
1536361362.21,32968,17.81,74042.3,0.69,-2.99,-3.87,0,*4A
1536361363.39,32969,17.81,74040.8,0.69,-2.99,-3.79,0,*4A
1536361364.6,32970,17.81,74042.8,0.67,-3.03,-3.83,0,*4B
1536361365.77,32971,17.81,74042.8,0.69,-2.91,-3.79,0,*4B
1536361366.98,32972,17.75,74036.5,0.67,-2.95,-3.91,0,*44
1536361368.19,32973,17.81,74040.3,0.67,-3.03,-3.91,0,*4B
1536361369.4,32974,17.81,74042.3,0.67,-3.07,-3.91,0,*48
1536361370.58,32975,17.81,74040.8,0.69,-3.03,-3.91,0,*43
1536361371.78,32976,17.81,74042.5,0.67,-3.07,-3.91,0,*4A
1536361372.96,32977,17.81,74042.8,0.69,-2.99,-3.87,0,*44
1536361374.16,32978,17.81,74042.8,0.67,-3.03,-3.95,0,*44
1536361375.37,32979,17.81,74042.8,0.67,-3.15,-4.05,0,*4C
1536361376.57,32980,17.81,74040.3,0.67,-3.19,-4.05,0,*46
1536361377.78,32981,17.81,74040.5,0.67,-3.15,-3.95,0,*45
1536361378.98,32982,17.81,74042.3,0.67,-3.07,-3.91,0,*41
1536361380.16,32983,17.81,74042.0,0.69,-3.03,-3.91,0,*4A
1536361381.37,32984,17.81,74038.8,0.67,-3.15,-4.05,0,*4E
1536361382.57,32985,17.81,74040.5,0.67,-3.19,-3.95,0,*4D
1536361383.78,32986,17.81,74038.8,0.67,-3.19,-3.95,0,*4E
1536361384.98,32987,17.81,74040.5,0.67,-3.15,-4.05,0,*4D
1536361386.19,32988,17.81,74042.8,0.67,-3.15,-3.91,0,*48
1536361387.4,32989,17.81,74040.5,0.67,-3.19,-4.05,0,*4F
1536361388.6,32990,17.81,74044.5,0.67,-3.19,-3.95,0,*49
1536361389.8,32991,17.81,74040.8,0.67,-3.19,-3.95,0,*48
1536361391.01,32992,17.81,74040.0,0.67,-3.19,-3.91,0,*4F
1536361392.19,32993,17.81,74038.8,0.69,-3.15,-3.91,0,*4C
1536361393.4,32994,17.81,74040.5,0.67,-3.15,-3.95,0,*41
1536361394.58,32995,17.81,74040.8,0.69,-3.19,-3.95,0,*42
1536361395.75,32996,17.81,74042.3,0.69,-3.19,-4.05,0,*4F
1536361396.96,32997,17.81,74040.5,0.67,-3.15,-3.95,0,*42
1536361398.14,32998,17.81,74040.5,0.69,-3.11,-3.91,0,*43
1536361399.35,32999,17.81,74042.5,0.67,-3.27,-4.09,0,*4F
1536361400.56,33000,17.81,74042.3,0.67,-3.27,-4.05,0,*4B
1536361401.76,33001,17.81,74042.8,0.67,-3.27,-4.09,0,*46
1536361402.97,33002,17.81,74042.5,0.67,-3.31,-4.09,0,*42
1536361404.15,33003,17.81,74040.8,0.65,-3.27,-4.09,0,*46
1536361405.33,33004,17.81,74040.3,0.65,-3.31,-4.09,0,*46
1536361406.51,33005,17.81,74042.0,0.65,-3.31,-4.09,0,*47
1536361407.69,33006,17.81,74040.5,0.65,-3.27,-4.05,0,*4F
1536361408.86,33007,17.81,74042.8,0.65,-3.19,-3.95,0,*4D
1536361410.04,33008,17.81,74040.5,0.65,-3.19,-3.91,0,*46
1536361411.21,33009,17.81,74042.8,0.65,-3.15,-3.95,0,*4F
1536361412.39,33010,17.81,74040.3,0.65,-3.19,-3.91,0,*4F
1536361413.57,33011,17.81,74042.3,0.65,-3.15,-3.91,0,*42
1536361414.75,33012,17.81,74042.0,0.65,-3.07,-3.91,0,*42
1536361415.92,33013,17.81,74040.3,0.65,-3.19,-3.95,0,*48
1536361417.1,33014,17.81,74040.0,0.65,-3.15,-3.95,0,*43
1536361418.28,33015,17.81,74042.0,0.65,-3.27,-4.09,0,*41
1536361419.45,33016,17.81,74040.5,0.65,-3.27,-3.95,0,*40
1536361420.66,33017,17.81,74040.3,0.67,-3.19,-3.95,0,*4E
1536361421.86,33018,17.81,74042.8,0.67,-3.19,-3.91,0,*45
1536361423.04,33019,17.81,74042.0,0.69,-3.31,-4.05,0,*4A
1536361424.25,33020,17.81,74040.0,0.67,-3.15,-3.95,0,*46
1536361425.46,33021,17.81,74042.5,0.67,-3.15,-3.91,0,*43
1536361426.67,33022,17.81,74042.8,0.67,-3.15,-3.91,0,*40
1536361427.87,33023,17.81,74042.8,0.67,-3.19,-3.95,0,*49
1536361429.08,33024,17.81,74040.5,0.67,-3.27,-3.91,0,*47
1536361430.27,33025,17.81,74044.0,0.69,-3.31,-3.91,0,*4F
1536361431.47,33026,17.81,74044.0,0.67,-3.35,-4.09,0,*40
1536361432.7,33027,17.81,74040.8,0.67,-3.43,-4.09,0,*40
1536361433.91,33028,17.81,74042.0,0.67,-3.35,-4.05,0,*42
1536361435.09,33029,17.81,74042.5,0.69,-3.31,-4.05,0,*49
1536361436.3,33030,17.81,74040.3,0.67,-3.31,-4.05,0,*4F
1536361437.51,33031,17.81,74042.0,0.67,-3.35,-4.09,0,*46
1536361438.72,33032,17.81,74038.8,0.67,-3.35,-4.09,0,*45
1536361439.93,33033,17.81,74040.5,0.67,-3.35,-4.13,0,*4F
1536361441.13,33034,17.81,74042.8,0.67,-3.35,-4.05,0,*4F
1536361442.34,33035,17.81,74040.0,0.67,-3.35,-4.05,0,*4E
1536361443.55,33036,17.75,74036.5,0.67,-3.35,-4.09,0,*41
1536361444.78,33037,17.75,74036.0,0.67,-3.43,-4.05,0,*4D
1536361445.96,33038,17.81,74038.0,0.65,-3.35,-4.09,0,*4D
1536361447.16,33039,17.81,74040.3,0.65,-3.43,-4.13,0,*46
1536361448.37,33040,17.81,74038.5,0.65,-3.43,-4.21,0,*49
1536361449.55,33041,17.81,74036.8,0.65,-3.35,-4.13,0,*48
1536361450.73,33042,17.81,74036.5,0.65,-3.35,-4.09,0,*40
1536361451.93,33043,17.81,74038.8,0.65,-3.43,-4.09,0,*40
1536361453.13,33044,17.81,74040.8,0.65,-3.47,-4.13,0,*48
1536361454.33,33045,17.75,74036.3,0.65,-3.43,-4.13,0,*4D
1536361455.57,33046,17.81,74038.5,0.67,-3.55,-4.13,0,*4B
1536361456.8,33047,17.81,74038.8,0.67,-3.47,-4.21,0,*48
1536361458.01,33048,17.81,74036.0,0.65,-3.47,-4.13,0,*44
1536361459.19,33049,17.81,74040.5,0.65,-3.35,-4.09,0,*4B
1536361460.39,33050,17.81,74038.0,0.65,-3.43,-4.13,0,*49
1536361461.59,33051,17.81,74042.8,0.65,-3.43,-4.13,0,*48
1536361462.82,33052,17.81,74038.8,0.63,-3.47,-4.13,0,*49
1536361464.02,33053,17.75,74038.8,0.65,-3.43,-4.09,0,*41
1536361465.23,33054,17.81,74038.0,0.65,-3.43,-4.13,0,*4D
1536361466.43,33055,17.81,74038.0,0.65,-3.47,-4.13,0,*48
1536361467.63,33056,17.81,74040.5,0.65,-3.47,-4.09,0,*40
1536361468.84,33057,17.81,74038.5,0.65,-3.47,-4.13,0,*4A
1536361470.07,33058,17.81,74038.5,0.63,-3.51,-4.25,0,*41
1536361471.27,33059,17.75,74038.5,0.65,-3.43,-4.05,0,*47
1536361472.47,33060,17.75,74038.8,0.65,-3.43,-4.05,0,*4D
1536361473.67,33061,17.81,74036.3,0.65,-3.47,-4.09,0,*44
1536361474.87,33062,17.81,74038.5,0.65,-3.43,-4.09,0,*43
1536361476.08,33063,17.81,74036.3,0.65,-3.47,-4.13,0,*4D
1536361477.28,33064,17.81,74036.0,0.65,-3.47,-4.13,0,*4A
1536361478.49,33065,17.75,74038.5,0.65,-3.47,-4.13,0,*4B
1536361479.72,33066,17.81,74036.0,0.63,-3.59,-4.25,0,*44
1536361480.93,33067,17.81,74038.5,0.65,-3.55,-4.21,0,*4B
1536361482.13,33068,17.81,74038.8,0.65,-3.47,-4.13,0,*46
1536361483.36,33069,17.81,74038.8,0.63,-3.51,-4.17,0,*42
1536361484.59,33070,17.81,74038.8,0.63,-3.59,-4.25,0,*43
1536361485.82,33071,17.81,74036.3,0.63,-3.59,-4.17,0,*43
1536361487.05,33072,17.81,74036.8,0.63,-3.59,-4.17,0,*40
1536361488.25,33073,17.81,74036.0,0.65,-3.47,-4.13,0,*4C
1536361489.48,33074,17.81,74038.0,0.63,-3.51,-4.17,0,*4E
1536361490.71,33075,17.75,74038.3,0.63,-3.47,-4.13,0,*4C
1536361491.94,33076,17.81,74038.8,0.63,-3.51,-4.17,0,*4C
1536361493.17,33077,17.81,74038.8,0.63,-3.51,-4.13,0,*49
1536361494.4,33078,17.81,74038.8,0.63,-3.51,-4.13,0,*46
1536361495.61,33079,17.81,74036.3,0.65,-3.47,-4.13,0,*46
1536361496.83,33080,17.81,74036.5,0.63,-3.59,-4.17,0,*4D
1536361498.06,33081,17.81,74040.5,0.63,-3.47,-4.09,0,*4C
1536361499.24,33082,17.81,74040.8,0.65,-3.35,-4.09,0,*4C
1536361500.48,33083,17.81,74036.3,0.63,-3.51,-4.13,0,*42
1536361501.71,33084,17.81,74036.0,0.63,-3.51,-4.13,0,*45
1536361502.94,33085,17.81,74036.0,0.63,-3.59,-4.13,0,*4C
1536361504.17,33086,17.81,74040.3,0.63,-3.51,-4.17,0,*43
1536361505.4,33087,17.81,74038.0,0.63,-3.51,-4.13,0,*46
1536361506.63,33088,17.81,74040.5,0.63,-3.51,-4.25,0,*4C
1536361507.83,33089,17.81,74038.5,0.65,-3.55,-4.13,0,*4A
1536361509.06,33090,17.81,74040.8,0.63,-3.59,-4.17,0,*4C
1536361510.29,33091,17.81,74036.8,0.63,-3.51,-4.17,0,*45
1536361511.52,33092,17.81,74042.0,0.63,-3.51,-4.25,0,*47
1536361512.75,33093,17.81,74042.5,0.63,-3.59,-4.17,0,*4F
1536361513.98,33094,17.81,74040.0,0.63,-3.51,-4.25,0,*41
1536361515.21,33095,17.75,74038.8,0.63,-3.59,-4.25,0,*48
1536361516.44,33096,17.81,74036.8,0.63,-3.59,-4.17,0,*4A
1536361517.67,33097,17.81,74038.0,0.63,-3.51,-4.17,0,*43
1536361518.88,33098,17.75,74038.8,0.61,-3.59,-4.25,0,*47
1536361520.08,33099,17.81,74040.5,0.61,-3.59,-4.17,0,*47
1536361521.28,33100,17.81,74038.3,0.61,-3.51,-4.17,0,*4E
1536361522.51,33101,17.81,74040.8,0.63,-3.59,-4.17,0,*45
1536361523.74,33102,17.81,74038.8,0.63,-3.51,-4.25,0,*4F
1536361524.95,33103,17.81,74036.5,0.61,-3.59,-4.17,0,*45
1536361526.15,33104,17.81,74040.3,0.61,-3.59,-4.17,0,*42
1536361527.35,33105,17.81,74036.8,0.61,-3.51,-4.17,0,*4B
1536361528.58,33106,17.75,74036.3,0.63,-3.59,-4.17,0,*42
1536361529.81,33107,17.81,74038.8,0.63,-3.59,-4.25,0,*42
1536361531.02,33108,17.81,74040.8,0.61,-3.63,-4.25,0,*46
1536361532.23,33109,17.81,74042.0,0.61,-3.55,-4.21,0,*46
1536361533.44,33110,17.81,74042.3,0.61,-3.59,-4.13,0,*43
1536361534.65,33111,17.81,74042.3,0.61,-3.63,-4.25,0,*4E
1536361535.85,33112,17.81,74042.0,0.61,-3.51,-4.17,0,*4D
1536361537.06,33113,17.81,74042.3,0.61,-3.59,-4.25,0,*45
1536361538.27,33114,17.81,74038.8,0.61,-3.51,-4.13,0,*4F
1536361539.51,33115,17.75,74038.0,0.59,-3.51,-4.21,0,*44
1536361540.71,33116,17.81,74036.0,0.61,-3.47,-4.13,0,*4A
1536361541.94,33117,17.81,74042.5,0.59,-3.51,-4.13,0,*47
1536361543.15,33118,17.81,74036.8,0.61,-3.51,-4.09,0,*48
1536361544.38,33119,17.81,74040.0,0.59,-3.63,-4.17,0,*4C
1536361545.58,33120,17.81,74040.5,0.61,-3.59,-4.17,0,*44
1536361546.78,33121,17.81,74042.0,0.61,-3.51,-4.09,0,*42
1536361547.99,33122,17.75,74042.0,0.61,-3.59,-4.17,0,*46
1536361549.2,33123,17.81,74042.0,0.61,-3.59,-4.13,0,*43
1536361550.43,33124,17.81,74042.3,0.59,-3.63,-4.29,0,*4F
1536361551.63,33125,17.81,74038.0,0.61,-3.59,-4.17,0,*41
1536361552.87,33126,17.81,74042.5,0.59,-3.63,-4.21,0,*45
1536361554.07,33127,17.81,74040.0,0.61,-3.59,-4.09,0,*4C
1536361555.28,33128,17.81,74038.5,0.61,-3.51,-4.13,0,*40
1536361556.49,33129,17.81,74042.3,0.61,-3.51,-4.09,0,*4A
1536361557.71,33130,17.75,74038.0,0.59,-3.63,-4.17,0,*47
1536361558.92,33131,17.81,74040.8,0.61,-3.59,-4.09,0,*4B
1536361560.13,33132,17.81,74042.3,0.61,-3.59,-4.13,0,*43
1536361561.34,33133,17.81,74042.3,0.61,-3.59,-4.09,0,*49
1536361562.55,33134,17.75,74038.3,0.61,-3.59,-4.13,0,*45
1536361563.75,33135,17.81,74040.3,0.61,-3.63,-4.25,0,*48
1536361564.96,33136,17.75,74038.3,0.61,-3.63,-4.17,0,*4A
1536361566.16,33137,17.81,74040.5,0.61,-3.55,-4.17,0,*4E
1536361567.38,33138,17.75,74040.0,0.59,-3.63,-4.17,0,*4F
1536361568.61,33139,17.75,74040.3,0.59,-3.67,-4.21,0,*4F
1536361569.85,33140,17.81,74042.5,0.59,-3.67,-4.21,0,*41
1536361571.06,33141,17.81,74044.0,0.61,-3.63,-4.13,0,*4E
1536361572.26,33142,17.75,74038.3,0.59,-3.75,-4.17,0,*45
1536361573.5,33143,17.81,74040.8,0.59,-3.63,-4.13,0,*47
1536361574.72,33144,17.75,74040.0,0.59,-3.55,-4.09,0,*4E
1536361575.95,33145,17.81,74040.8,0.59,-3.63,-4.13,0,*41
1536361577.18,33146,17.81,74040.5,0.59,-3.63,-4.17,0,*46
1536361578.41,33147,17.81,74042.0,0.59,-3.67,-4.13,0,*47
1536361579.62,33148,17.81,74040.3,0.59,-3.75,-4.13,0,*4B
1536361580.85,33149,17.75,74036.5,0.59,-3.67,-4.13,0,*49
1536361582.08,33150,17.75,74038.0,0.59,-3.67,-4.13,0,*41
1536361583.3,33151,17.81,74040.3,0.59,-3.63,-4.17,0,*40
1536361584.51,33152,17.75,74038.5,0.61,-3.71,-4.13,0,*4F
1536361585.72,33153,17.81,74040.0,0.59,-3.75,-4.17,0,*45
1536361586.92,33154,17.81,74042.3,0.59,-3.75,-4.17,0,*42
1536361588.11,33155,17.81,74036.8,0.57,-3.79,-4.21,0,*44
1536361589.32,33156,17.75,74036.3,0.57,-3.71,-4.21,0,*4F
1536361590.53,33157,17.81,74040.3,0.59,-3.79,-4.17,0,*4D
1536361591.75,33158,17.81,74042.5,0.59,-3.67,-4.17,0,*4D
1536361592.94,33159,17.81,74042.8,0.57,-3.79,-4.21,0,*48
1536361594.12,33160,17.81,74038.8,0.57,-3.79,-4.17,0,*47
1536361595.31,33161,17.81,74042.3,0.57,-3.79,-4.21,0,*43
1536361596.49,33162,17.75,74040.0,0.57,-3.79,-4.17,0,*45
1536361597.67,33163,17.81,74038.3,0.57,-3.79,-4.17,0,*44
1536361598.88,33164,17.81,74040.5,0.59,-3.75,-4.17,0,*41
1536361600.09,33165,17.75,74038.3,0.59,-3.75,-4.13,0,*44
1536361601.32,33166,17.81,74042.5,0.59,-3.67,-4.13,0,*44
1536361602.55,33167,17.81,74040.5,0.59,-3.67,-4.13,0,*45
1536361603.74,33168,17.81,74042.3,0.57,-3.71,-4.17,0,*47
1536361604.98,33169,17.75,74038.3,0.59,-3.63,-4.13,0,*4F
1536361606.2,33170,17.81,74040.0,0.59,-3.55,-4.05,0,*45
1536361607.4,33171,17.75,74036.0,0.57,-3.59,-4.09,0,*4A
1536361608.6,33172,17.75,74040.8,0.57,-3.67,-4.09,0,*44
1536361609.78,33173,17.81,74042.0,0.57,-3.79,-4.17,0,*45
1536361610.96,33174,17.75,74036.8,0.57,-3.79,-4.17,0,*42
1536361612.16,33175,17.81,74038.8,0.57,-3.71,-4.09,0,*44
1536361613.37,33176,17.81,74042.8,0.57,-3.59,-4.09,0,*4D
1536361614.57,33177,17.75,74038.3,0.57,-3.67,-4.09,0,*41
1536361615.8,33178,17.75,74036.5,0.55,-3.59,-4.09,0,*41
1536361617.0,33179,17.75,74038.0,0.57,-3.59,-4.09,0,*42
1536361618.2,33180,17.75,74036.5,0.57,-3.67,-4.09,0,*49
1536361619.38,33181,17.81,74038.0,0.57,-3.79,-4.17,0,*48
1536361620.6,33182,17.75,74038.0,0.55,-3.71,-4.17,0,*41
1536361621.8,33183,17.81,74042.3,0.57,-3.71,-4.09,0,*4D
1536361623.01,33184,17.75,74038.0,0.55,-3.79,-4.17,0,*4F
1536361624.2,33185,17.81,74038.0,0.57,-3.71,-4.17,0,*44
1536361625.43,33186,17.75,74038.3,0.55,-3.67,-4.09,0,*4D
1536361626.65,33187,17.81,74040.8,0.55,-3.71,-4.17,0,*44
1536361627.84,33188,17.75,74038.0,0.57,-3.79,-4.09,0,*4E
1536361629.03,33189,17.75,74038.5,0.57,-3.71,-4.17,0,*48
1536361630.23,33190,17.75,74038.3,0.57,-3.71,-4.17,0,*40
1536361631.45,33191,17.75,74036.5,0.55,-3.71,-4.17,0,*43
1536361632.65,33192,17.75,74038.3,0.57,-3.71,-4.17,0,*42
1536361633.85,33193,17.81,74042.0,0.57,-3.71,-4.09,0,*4C
1536361635.07,33194,17.81,74040.8,0.55,-3.71,-4.17,0,*46
1536361636.3,33195,17.81,74042.3,0.55,-3.67,-4.05,0,*43
1536361637.5,33196,17.81,74040.0,0.57,-3.59,-4.05,0,*4F
1536361638.7,33197,17.81,74040.8,0.57,-3.59,-4.05,0,*4E
1536361639.93,33198,17.81,74040.5,0.55,-3.59,-4.05,0,*43
1536361641.16,33199,17.75,74042.3,0.55,-3.67,-4.05,0,*4F
1536361642.37,33200,17.75,74040.0,0.57,-3.59,-4.05,0,*43
1536361643.57,33201,17.81,74042.5,0.57,-3.67,-4.05,0,*4F
1536361644.76,33202,17.75,74042.3,0.57,-3.67,-4.09,0,*40
1536361645.99,33203,17.75,74036.8,0.55,-3.55,-4.05,0,*4E
1536361647.22,33204,17.81,74042.0,0.55,-3.47,-4.05,0,*4A
1536361648.45,33205,17.75,74040.5,0.55,-3.59,-4.09,0,*48
1536361649.65,33206,17.75,74036.0,0.57,-3.59,-4.05,0,*45
1536361650.88,33207,17.75,74038.3,0.55,-3.67,-4.05,0,*4B
1536361652.11,33208,17.81,74042.5,0.55,-3.67,-4.09,0,*48
1536361653.31,33209,17.75,74040.3,0.57,-3.67,-4.09,0,*4B
1536361654.54,33210,17.75,74040.0,0.55,-3.67,-4.21,0,*4B
1536361655.77,33211,17.75,74042.0,0.55,-3.59,-4.09,0,*4D
1536361657.0,33212,17.75,74036.5,0.55,-3.59,-4.09,0,*4E
1536361658.2,33213,17.81,74042.0,0.57,-3.67,-4.09,0,*40
1536361659.4,33214,17.75,74038.3,0.57,-3.67,-4.09,0,*47
1536361660.6,33215,17.75,74040.3,0.57,-3.67,-4.09,0,*46
1536361661.83,33216,17.75,74040.8,0.55,-3.67,-4.17,0,*48
1536361663.05,33217,17.75,74038.8,0.55,-3.67,-4.09,0,*46
1536361664.28,33218,17.75,74038.5,0.55,-3.71,-4.05,0,*42
1536361665.48,33219,17.75,74036.3,0.57,-3.67,-4.17,0,*45
1536361666.7,33220,17.81,74040.5,0.55,-3.67,-4.09,0,*42
1536361667.93,33221,17.75,74042.5,0.55,-3.59,-4.05,0,*42
1536361669.16,33222,17.75,74040.8,0.55,-3.59,-4.05,0,*41
1536361670.4,33223,17.81,74042.3,0.55,-3.59,-4.05,0,*40
1536361671.62,33224,17.75,74038.3,0.55,-3.55,-4.05,0,*4B
1536361672.85,33225,17.81,74040.3,0.55,-3.55,-4.05,0,*4A
1536361674.08,33226,17.81,74040.5,0.55,-3.67,-4.21,0,*4E
1536361675.28,33227,17.75,74040.8,0.57,-3.67,-4.17,0,*48
1536361676.5,33228,17.75,74038.8,0.55,-3.59,-4.17,0,*48
1536361677.73,33229,17.81,74040.5,0.55,-3.67,-4.09,0,*4B
1536361678.96,33230,17.75,74040.0,0.55,-3.67,-4.09,0,*43
1536361680.19,33231,17.75,74040.5,0.55,-3.59,-4.17,0,*40
1536361681.42,33232,17.75,74038.3,0.55,-3.67,-4.21,0,*4B
1536361682.64,33233,17.75,74042.0,0.55,-3.67,-4.17,0,*4F
1536361683.88,33234,17.81,74044.3,0.55,-3.67,-4.21,0,*4D
1536361685.11,33235,17.75,74042.3,0.55,-3.67,-4.21,0,*4C
1536361686.33,33236,17.75,74040.3,0.55,-3.67,-4.17,0,*4A
1536361687.53,33237,17.75,74042.3,0.57,-3.59,-4.17,0,*44
1536361688.77,33238,17.81,74044.0,0.55,-3.67,-4.21,0,*41
1536361690.0,33239,17.75,74038.5,0.55,-3.59,-4.09,0,*47
1536361691.22,33240,17.81,74046.5,0.55,-3.55,-4.09,0,*45
1536361692.45,33241,17.81,74042.0,0.55,-3.55,-4.05,0,*48
1536361693.66,33242,17.81,74042.0,0.53,-3.59,-4.25,0,*43
1536361694.88,33243,17.81,74042.5,0.55,-3.67,-4.17,0,*48
1536361696.12,33244,17.75,74042.5,0.55,-3.67,-4.21,0,*4A
1536361697.35,33245,17.75,74042.3,0.55,-3.67,-4.21,0,*4B
1536361698.58,33246,17.81,74044.0,0.55,-3.67,-4.21,0,*48
1536361699.82,33247,17.81,74042.3,0.55,-3.67,-4.21,0,*49
1536361701.05,33248,17.75,74040.0,0.55,-3.67,-4.25,0,*42
1536361702.28,33249,17.75,74042.0,0.55,-3.67,-4.25,0,*43
1536361703.51,33250,17.81,74040.8,0.55,-3.59,-4.21,0,*42
1536361704.74,33251,17.81,74046.0,0.55,-3.59,-4.17,0,*46
1536361705.97,33252,17.75,74042.0,0.55,-3.59,-4.17,0,*45
1536361707.2,33253,17.81,74040.5,0.55,-3.59,-4.17,0,*44
1536361708.42,33254,17.75,74040.5,0.55,-3.67,-4.17,0,*4E